Location: Albany
(35.0170°S, 117.8920°E)
Time: 00:58:52
(UTC+08:00)

N. Korean satellite - Visible Passes

Search period start: 26 November 2020 00:00
Search period end: 06 December 2020 00:00
Orbit: 452 x 504 km, 97.2° (Epoch: 24 November)

Date Brightness Start Highest point End Pass type
(mag) Time Alt. Az. Time Alt. Az. Time Alt. Az.
26 Nov 10.6 03:46:52 10° ESE 03:47:23 10° ESE 03:47:52 10° ESE visible
29 Nov 9.9 03:59:28 10° ENE 04:01:44 16° ESE 04:04:00 10° SSE visible
02 Dec 9.5 04:13:03 10° NE 04:16:03 23° ESE 04:19:02 10° SSE visible
03 Dec 10.3 03:48:52 10° E 03:49:58 11° ESE 03:51:04 10° SE visible
